Weather History for Findlay, OH

Change the Weather History Date:

Monday, January 9, 2012

  Actual Average Record
Temperature  
Mean Temperature 34 °F -  
Max Temperature 41 °F 28 °F 59 °F (1949)
Min Temperature 27 °F 15 °F -10 °F (1981)
Degree Days  
Heating Degree Days 31    
Moisture  
Dew Point 25 °F    
Average Humidity 71    
Maximum Humidity 85    
Minimum Humidity 53    
Precipitation  
Precipitation 0.00 in - - ()
Sea Level Pressure  
Sea Level Pressure 30.12 in    
Wind  
Wind Speed 6 mph (SSW)    
Max Wind Speed 17 mph    
Max Gust Speed -    
Visibility 10 miles    
Events      
Averages and records for this station are not official NWS values.
T = Trace of Precipitation, MM = Missing Value Source: NWS Daily Summary

Daily Weather History Graph

Daily Weather History Graph

Search for Another Location

Airport:

Trip Planner

Search our weather history database for the weather conditions in past years. The results will help you decide how hot, cold, wet, or windy it might be!

Date:

Astronomy

Jan. 09, 2012 Rise Set
Actual Time 7:59 AM EST 5:24 PM EST
Civil Twilight 7:28 AM EST 5:54 PM EST
Nautical Twilight 6:54 AM EST 6:29 PM EST
Astronomical Twilight 6:21 AM EST 7:02 PM EST
Moon 6:10 PM EST (1/9) 7:58 AM EST (1/9)
Length of Visible Light 10h 26m
Length of Day
9h 24m
Full, 100% of the Moon is Illuminated
Jan 9
Full
Jan 16
Last Quarter
Jan 23
New
Jan 30
First Quarter
Feb 7
Full

Hourly Weather History & Observations

Time (EST) Temp. Windchill Dew Point Humidity Pressure Visibility Wind Dir Wind Speed Gust Speed Precip Events Conditions
12:53 AM 30.9 °F - 27.0 °F 85% 30.29 in 10.0 mi North - - N/A   Overcast
1:53 AM 30.9 °F 26.2 °F 26.1 °F 82% 30.27 in 10.0 mi South 4.6 mph - N/A   Overcast
2:53 AM 30.9 °F 27.5 °F 26.1 °F 82% 30.26 in 10.0 mi South 3.5 mph - N/A   Overcast
3:53 AM 30.9 °F - 25.0 °F 79% 30.25 in 10.0 mi Calm Calm - N/A   Overcast
4:53 AM 32.0 °F - 24.1 °F 73% 30.23 in 10.0 mi Calm Calm - N/A   Mostly Cloudy
5:53 AM 30.9 °F 27.5 °F 24.1 °F 76% 30.22 in 10.0 mi SSE 3.5 mph - N/A   Overcast
6:53 AM 28.9 °F 25.2 °F 24.1 °F 82% 30.22 in 10.0 mi South 3.5 mph - N/A   Partly Cloudy
7:53 AM 27.0 °F 21.6 °F 21.9 °F 81% 30.20 in 10.0 mi South 4.6 mph - N/A   Clear
8:53 AM 28.9 °F 25.2 °F 24.1 °F 82% 30.19 in 10.0 mi South 3.5 mph - N/A   Clear
9:53 AM 35.1 °F 30.1 °F 27.0 °F 72% 30.18 in 10.0 mi South 5.8 mph - N/A   Clear
11:53 AM 39.9 °F 33.4 °F 24.1 °F 53% 30.14 in 10.0 mi SW 10.4 mph - N/A   Clear
12:53 PM 41.0 °F 34.7 °F 25.0 °F 53% 30.10 in 10.0 mi SW 10.4 mph - N/A   Clear
1:53 PM 41.0 °F 33.9 °F 25.0 °F 53% 30.06 in 10.0 mi WSW 12.7 mph - N/A   Clear
3:53 PM 41.0 °F 35.8 °F 26.1 °F 55% 30.02 in 10.0 mi WSW 8.1 mph - N/A   Clear
4:53 PM 37.9 °F 32.7 °F 28.0 °F 68% 30.02 in 10.0 mi SSW 6.9 mph - N/A   Clear
5:53 PM 33.1 °F 26.1 °F 26.1 °F 75% 30.01 in 10.0 mi SSW 8.1 mph - N/A   Clear
6:53 PM 30.9 °F 22.8 °F 26.1 °F 82% 30.00 in 10.0 mi South 9.2 mph - N/A   Clear
7:53 PM 32.0 °F 24.2 °F 26.1 °F 79% 30.00 in 10.0 mi SSW 9.2 mph - N/A   Clear
8:53 PM 36.0 °F - 26.1 °F 67% 30.00 in 10.0 mi North - - N/A   Clear
9:53 PM 37.9 °F 29.6 °F 25.0 °F 60% 30.00 in 10.0 mi WSW 13.8 mph - N/A   Clear
10:53 PM 37.0 °F 28.1 °F 26.1 °F 65% 29.99 in 10.0 mi WSW 15.0 mph - N/A   Clear
11:53 PM 36.0 °F 26.0 °F 26.1 °F 67% 29.98 in 10.0 mi West 17.3 mph - N/A   Clear